Location: Ch�tillon
(48.8024°N, 2.2935°E)
Time: 02:07:52
(UTC+00:00)

LO-87 - Visible Passes

Search period start: 28 June 2022 00:00
Search period end: 08 July 2022 00:00
Orbit: 454 x 468 km, 97.4° (Epoch: 27 June)

Date Brightness Start Highest point End Pass type
(mag) Time Alt. Az. Time Alt. Az. Time Alt. Az.
28 Jun ? 21:55:15 10° ENE 21:56:11 11° ENE 21:57:06 10° NE visible
28 Jun ? 23:27:51 49° SSW 23:28:38 69° WSW 23:32:06 10° NNW visible
29 Jun ? 22:55:59 33° ESE 22:57:05 46° ENE 23:00:26 10° N visible
30 Jun ? 00:29:51 13° W 00:30:21 13° W 00:32:07 10° WNW visible
30 Jun ? 22:24:05 16° ESE 22:25:41 21° ENE 22:28:21 10° NNE visible
30 Jun ? 23:57:58 28° WSW 23:58:31 29° W 00:01:36 10° NNW visible
01 Jul ? 21:53:46 10° ENE 21:54:23 10° ENE 21:55:00 10° NE visible
01 Jul ? 23:26:03 51° S 23:26:48 74° WSW 23:30:17 10° NNW visible
02 Jul ? 22:54:08 32° ESE 22:55:13 44° ENE 22:58:33 10° N visible
03 Jul ? 00:28:00 14° W 00:28:27 14° W 00:30:22 10° WNW visible
03 Jul ? 22:22:11 15° E 22:23:46 20° ENE 22:26:23 10° NNE visible
03 Jul ? 23:56:04 30° WSW 23:56:34 31° W 23:59:42 10° NNW visible
04 Jul ? 23:24:06 53° S 23:24:49 79° WSW 23:28:19 10° NNW visible
05 Jul ? 22:52:08 31° ESE 22:53:11 41° ENE 22:56:30 10° N visible
06 Jul ? 00:26:00 15° W 00:26:23 15° W 00:28:27 10° NW visible
06 Jul ? 22:20:08 15° E 22:21:41 19° ENE 22:24:14 10° NNE visible
06 Jul ? 23:54:00 32° WSW 23:54:27 33° W 23:57:39 10° NNW visible
07 Jul ? 23:22:00 56° S 23:22:40 84° WSW 23:26:10 10° NNW visible
